Regional Weather Roundup
Issued by NWS Midland/Odessa, TX

Skip options and go directly to product.
Home | Oldest Version | Previous Version | Current Version | All | Graphics & Text | Save Text | Print | Product List | Glossary On

Skip product version selection by date and time.   
042
ASUS44 KMAF 281410
RWRMAF
MIDLAND AREA WEATHER ROUNDUP
NATIONAL WEATHER SERVICE MIDLAND TX
900 AM CDT SAT MAR 28 2015

...IN SOUTHWEST TEXAS AND SOUTHEAST NEW MEXICO...

CITY           SKY/WX    TMP DP  RH WIND       PRES   REMARKS
ALPINE         SUNNY     62  28  27 W10       30.25S
ANDREWS        FAIR      55  35  46 SW12      30.08R
ARTESIA        SUNNY     55  27  33 NW6       30.11S
BIG SPRING     SUNNY     59  38  45 S14       30.09S
CARLSBAD       SUNNY     49  34  56 N7        30.09R
DRYDEN           N/A     57  42  57 W3        30.11R
FORT STOCKTON  SUNNY     64  31  28 SW20      30.10R
GUAD PASS      MOSUNNY   60  18  19 SW12      30.23R
HOBBS          SUNNY     52  36  54 SW7       30.10R
MARFA          SUNNY     48  36  61 CALM      30.25R
MIDLAND AIRPK  SUNNY     59  37  43 SW7       30.08S
MIDLAND INTL   SUNNY     56  37  49 SW10      30.08R
ODESSA         SUNNY     56  36  47 SW7       30.09R
PECOS          SUNNY     49  41  75 E5        30.09S
PRESIDIO       FAIR      58  35  41 N5        30.16S
SEMINOLE       SUNNY     53  36  53 W12       30.09R
SNYDER         SUNNY     55  36  48 S10       30.07S
WINK           SUNNY     50  38  63 CALM      30.08R
$$
...OTHER STATIONS IN TEXAS...

CITY           SKY/WX    TMP DP  RH WIND       PRES   REMARKS
ABILENE        SUNNY     61  36  39 S18G28    30.05F
AMARILLO       SUNNY     51  35  54 NW10      30.07S
AUSTIN         MOSUNNY   52  48  86 CALM      30.13S
BROWNSVILLE    SUNNY     61  58  90 S5        30.20R
CORPUS CHRISTI SUNNY     55  51  86 SW9       30.19R
DALLAS FTW     MOSUNNY   52  41  66 S13       30.10R
DEL RIO        SUNNY     58  39  49 E9        30.11R
EL PASO        SUNNY     58  23  26 VRB3      30.16R
HOUSTON INT    MOSUNNY   60  48  64 SE7       30.17S
LUBBOCK        MOSUNNY   50  36  58 SW7       30.05S
SAN ANGELO     SUNNY     61  37  41 S20       30.08S
SAN ANTONIO    SUNNY     63  38  39 SW10      30.16R
WACO           SUNNY     56  43  61 S13       30.11S
WICHITA FALLS  NOT AVBL
$$
...OTHER LOCATIONS IN NEW MEXICO...

CITY           SKY/WX    TMP DP  RH WIND       PRES   REMARKS
ALAMAGORDO     MOSUNNY   50  19  29 N6        30.20R
ALBUQUERQUE    SUNNY     51  21  30 NE3       30.25R
CANNON AFB     SUNNY     53  30  41 NW16      30.09R
CLOVIS         SUNNY     52  32  46 NW18      30.09R
HOLLOMAN AFB   MOSUNNY   49  20  31 CALM      30.18R
ROSWELL        SUNNY     49  32  52 N5        30.12R
RUIDOSO        SUNNY     54  18  24 SW7       30.29S
SANTA FE       SUNNY     44  23  43 N8        30.27R WCI  39
TRUTH OR CONSE SUNNY     57  14  18 NW7       30.22R
TUCUMCARI      SUNNY     48  32  53 W7        30.11R
$$

USA.gov is the U.S. government's official web portal to all federal, state and local government web resources and services.